Location: West Sayville
(40.7279°N, 73.0976°W)
Time: 04:55:01
(UTC+00:00)

COSMO-SKYMED 1 - Pass Details

Date: 29 October 2020
Orbit: 621 x 623 km, 97.9° (Epoch: 29 November)

Event Time Altitude Azimuth Distance (km) Brightness Sun altitude
Rises 23:31:00 0° 4° (N) 2,912 6.0 -19.3°
Reaches altitude 10° 23:33:17 10° 357° (N) 2,000 5.2 -19.8°
Maximum altitude 23:37:20 39° 289° (WNW) 932 3.9 -20.5°
Drops below altitude 10° 23:41:22 10° 220° (SW) 1,985 5.7 -21.3°
Sets 23:43:38 0° 213° (SSW) 2,887 6.4 -21.7°
